Showing default

HOTSAT-1, 56954

Orbit data source: Space-Track

HOTSAT-1, 56954 is a payload satellite owned by Satellite Vu (UK) in SSO that was launched on Mon, 12 Jun 2023 UTC via an FALCON 9 launch vehicle from the Air Force Western Test Range (AFWTR). Payload-class satellites include a variety of spacecraft equipped with specific instruments for various scientific and technological missions. These include communications satellites like Starlink; space stations such as the ISS; scientific satellites like the Hubble; Earth observation satellites from companies like Planet Labs, Umbra, and HawkEye 360; GPS; miniature CubeSats for education and research; and military/defense satellites.

Loading next visibility...
Identifier
56954, 2023-084Y
Orbit
SSO
Country
Flag of UKUK
Related business
Manufacturer
SSTL
Mission
Non-operational Commercial Imaging
Bus & Motor
DARKCARB, H2O AOCS
Mass
130 kg wet, 130 kg dry
Launch date (UTC)
2023-06-12 (3 years ago)
Launch vehicle
FALCON 9
Launch site
Air Force Western Test Range (AFWTR)
Object type
Payload
Rocket body
Debris
Shape & HBR
Box + Cone + 1 Pan, 0.5 m
Radar Cross Section
0.625 m², Medium (>0.1 m² and < 1m²)

Expand to show TLE details & history
Last TLE update: 7 hours ago

TLE from 7 hours ago
0 HOTSAT-1
1 56954U 23084Y   25347.00636942  .00007319  00000-0  32448-3 0  9991
2 56954  97.5979 114.1416 0002615 284.2525  75.8420 15.21909665138773
Epoch: 2025-12-13T00:09Z
TLE epoch observation values (Epoch: 2025-12-13T00:09:10.317Z)
Latitude
-0.00006°
Longitude
29.90878°
Altitude
502.729 km
Speed
7.613 km/s
True Right ascension
07h 36m 33s
True Declination
0° 00' 00"
Sunlit
Object was in full shadow at epoch
Visualization orbit readout
Latitude
Unknown
Longitude
Unknown
Altitude
Unknown
Speed
Unknown
Apparent Right ascension
Unknown
Apparent Declination
Unknown
Sunlit
N/A
Visualization observer readout
Local Sidereal Time
05:22:28
Azimuth
Unknown
Elevation
Unknown
Doppler factor
Unknown
Orbital elements
Apogee altitude
498.85 km
Perigee altitude
495.255 km
Semi-major axis
6,875.189 km
Eccentricity
0.00026
Inclination
97.5979°
RAAN
114.1416°
Arg. of periapsis
284.2525°
True anomaly
75.87106°
Mean anomaly
75.842°
Eccentric anomaly
75.85653°
Mean motion
3.80729 °/min
Orbital period
94.56 mins
BSTAR
0.00032448
Loading maneuver chart data...
Computing Atmospheric mass density...
Loading historical data...
Loading historical data...
Loading historical data...
Loading historical data...
Loading historical data...
Loading historical data...
Loading historical data...

Documentation

Showing up to 5 results
|